EW7577 Weather Reports


time (UTC)temp
C
wind
direction
speed
KPH
gust
KPH
rain 1hr
cm
rain 24hr
cm
rain mn
cm
humidity
%
barometer
mb
20260506004542 25 22 1.6 19.3 0.00 0.00 0.00 27 1003.2
20260506003034 25 280 9.7 25.7 0.00 0.00 0.00 25 1003.1
20260506001532 26 56 0.0 11.3 0.00 0.00 0.00 28 1003.0
20260506000030 25 269 0.0 20.9 0.00 0.00 0.00 26 1003.2
20260505234530 25 291 3.2 20.9 0.00 0.00 0.00 25 1003.3
20260505233032 25 304 1.6 14.5 0.00 0.00 0.00 28 1003.4
20260505231533 25 283 0.0 9.7 0.00 0.00 0.00 28 1003.4
20260505230026 25 277 1.6 14.5 0.00 0.00 0.00 30 1003.6
20260505224522 25 300 4.8 24.1 0.00 0.00 0.00 30 1003.7
20260505223021 25 280 1.6 35.4 0.00 0.00 0.00 28 1003.8
20260505221518 25 271 1.6 17.7 0.00 0.00 0.00 30 1004.2
20260505220036 25 253 1.6 12.9 0.00 0.00 0.00 31 1004.3
20260505214524 25 326 0.0 16.1 0.00 0.00 0.00 31 1004.6
20260505213019 24 72 0.0 22.5 0.00 0.00 0.00 32 1004.7
20260505211511 23 277 6.4 19.3 0.00 0.00 0.00 33 1004.9
20260505210010 23 281 0.0 8.0 0.00 0.00 0.00 33 1005.1
20260505204509 23 352 1.6 19.3 0.00 0.00 0.00 33 1005.2
20260505203010 23 290 0.0 14.5 0.00 0.00 0.00 35 1005.4
20260505201505 23 169 1.6 24.1 0.00 0.00 0.00 34 1005.6
20260505200006 22 286 0.0 9.7 0.00 0.00 0.00 34 1005.6
20260505194508 22 283 0.0 12.9 0.00 0.00 0.00 34 1005.7
20260505193005 23 215 0.0 1.6 0.00 0.00 0.00 33 1005.9
20260505191502 23 160 0.0 1.6 0.00 0.00 0.00 33 1006.0
20260505181530 21 273 0.0 1.6 0.00 0.00 0.00 35 1006.6
20260505180028 21 229 0.0 4.8 0.00 0.00 0.00 34 1006.6
20260505174527 21 82 0.0 4.8 0.00 0.00 0.00 35 1006.7
20260505173024 20 262 0.0 6.4 0.00 0.00 0.00 37 1006.7
20260505171523 20 77 0.0 3.2 0.00 0.00 0.00 37 1006.7
20260505170028 20 181 0.0 12.9 0.00 0.00 0.00 36 1006.6
20260505164521 20 138 0.0 1.6 0.00 0.00 0.00 37 1006.5
20260505163019 20 176 0.0 6.4 0.00 0.00 0.00 38 1006.6
20260505161516 19 148 1.6 19.3 0.00 0.00 0.00 38 1006.6
20260505153014 18 148 0.0 9.7 0.00 0.00 0.00 39 1006.4
20260505151511 18 110 0.0 16.1 0.00 0.00 0.00 43 1006.4
20260505124555 11 122 0.0 0.0 0.00 0.00 0.00 73 1004.1
20260505123054 11 141 0.0 0.0 0.00 0.00 0.00 70 1004.0
20260505121543 12 145 0.0 0.0 0.00 0.00 0.00 69 1003.6
20260505120049 12 273 0.0 0.0 0.00 0.00 0.00 67 1003.2
20260505114539 12 259 0.0 0.0 0.00 0.00 0.00 67 1003.1
20260505113040 12 232 0.0 0.0 0.00 0.00 0.00 66 1002.9
20260505111533 12 153 0.0 0.0 0.00 0.00 0.00 63 1002.9
20260505101519 14 241 0.0 0.0 0.00 0.00 0.00 55 1002.0
20260505100017 14 280 0.0 1.6 0.00 0.00 0.00 56 1001.8
20260505094518 14 290 0.0 1.6 0.00 0.00 0.00 55 1001.8
20260505093012 15 263 0.0 6.4 0.00 0.00 0.00 54 1001.6
20260505091512 15 278 1.6 12.9 0.00 0.00 0.00 53 1001.3
20260505090006 15 276 0.0 14.5 0.00 0.00 0.00 52 1001.3
20260505084515 15 281 3.2 16.1 0.00 0.00 0.00 51 1001.2
20260505083002 15 263 1.6 11.3 0.00 0.00 0.00 51 1001.3
20260505081600 16 238 0.0 11.3 0.00 0.00 0.00 49 1001.1
20260505080112 16 264 0.0 12.9 0.00 0.00 0.00 49 1001.1
20260505074553 16 250 0.0 1.6 0.00 0.00 0.00 48 1001.0
20260505073049 17 274 0.0 11.3 0.00 0.00 0.00 44 1000.9
20260505071546 18 288 0.0 9.7 0.00 0.00 0.00 43 1000.8
20260505070045 18 288 0.0 11.3 0.00 0.00 0.00 42 1000.7
20260505064540 18 283 0.0 14.5 0.00 0.00 0.00 42 1000.6
20260505063038 18 283 0.0 11.3 0.00 0.00 0.00 42 1000.5
20260505061534 18 273 0.0 6.4 0.00 0.00 0.00 42 1000.4
20260505060036 19 285 1.6 14.5 0.00 0.00 0.00 41 1000.3
20260505054530 19 271 1.6 12.9 0.00 0.00 0.00 41 1000.1
20260505053045 19 278 4.8 17.7 0.00 0.00 0.00 42 999.9
20260505051530 20 290 1.6 12.9 0.00 0.00 0.00 42 999.9
20260505041526 21 297 1.6 17.7 0.00 0.00 0.00 38 999.5
20260505040025 22 283 3.2 12.9 0.00 0.00 0.00 37 999.4
20260505034528 22 288 1.6 14.5 0.00 0.00 0.00 36 999.2
20260505033025 22 281 0.0 8.0 0.00 0.00 0.00 35 999.1
20260505031526 23 285 0.0 6.4 0.00 0.00 0.00 34 998.8
20260505030023 23 287 0.0 4.8 0.00 0.00 0.00 32 998.7
20260505024522 24 320 0.0 11.3 0.00 0.00 0.00 31 998.6
20260505023022 25 287 0.0 14.5 0.00 0.00 0.00 30 998.4
20260505021521 25 264 1.6 16.1 0.00 0.00 0.00 29 998.4
20260505020021 26 276 1.6 17.7 0.00 0.00 0.00 27 998.3
20260505014519 26 285 1.6 14.5 0.00 0.00 0.00 26 998.4
20260505013019 26 292 0.0 11.3 0.00 0.00 0.00 26 998.6
20260505011541 26 288 1.6 16.1 0.00 0.00 0.00 27 998.7
20260505010018 26 264 0.0 20.9 0.00 0.00 0.00 26 998.8